Погода в Бектауате

Погода в Бектауате : погода сейчас, прогноз погоды и архив. Всё, что Вы хотите узнать о погоде в Бектауате!

Поиск расширенной информации на нашем сайте:

Другие новости

Новости СМИ2

Главная страница сайта

Новости сайта

02.10.2013

Напоминаем, что на нашем новом сайте вы можете получить высокодетализированные прогнозы погоды по пунктам России, СНГ и мира (включающие важные для авиации метеовеличины, такие как направление и скорость ветра, видимость, явления погоды, количество и форма облачности, нижняя и верхняя граница облачности), а также ознакомиться с разнообразными материалами по авиационной метеорологии и подборкой полезных ссылок на эту тему.

Сайт Метеоцентр.Азия посвящён разработке технологий оптимизации авиаметеорологического обслуживания, включая проектирование и перспективное создание нескольких автоматизированных авиаметеорологических систем:
- система выпуска высокодетальных прогностических карт явлений погоды для нижнего воздушного пространства по России и ближнему зарубежью;
- система верификации прогнозов TAF (выпускаемых синоптиками официальных АМСГ РФ и ближнего зарубежья) и AUTOTAF (выпускаемых сайтом Метеоцентр.Азия) - выявление ошибок, онлайн-сопоставление с фактической погодой METAR, автоматическое внесение коррективов в прогнозы при резком отклонении фактической погоды от прогноза, подсчёт оправдываемости прогнозов по элементам и в целом;
- система обработки, анализа и отображения авиаметеорологической информации для применения провайдерами метеорологической информации.


Погода в Бектауате - сегодня

Время (UTC), дата Ветер
(°,м/с) 
Видим.   Явления Облачность Т
(°С)
Тd
(°С)
f(%) Тe
(°С)
Pmin
(гПа)
dP
(гПа)
Po
(мм)
O2
(г/м3)
Тmin Tmax R s Состояние
почвы
09 23.04.17 250 (З) 20000 м    9/3 600 м кучево-дожд., средняя 
[Cb cap|Ac cast]
+19.2 +0.2 28 +20  1019.2  -0.9  711  268           
12 23.04.17 230 (ЮЗ) 20000 м    9/0 средняя, верхняя 
[Ac lent|Ci]
+19.3 +2.7 33 +20  1018.5  -0.5  711  267           
15 23.04.17 тихо ()   н/о    8/4 600 м кучево-дожд., верхняя 
[Cb cap|Ci]
+14.7 +8.8 68 +15  1019.7  0.1  711  270    +20.4       
18 23.04.17 тихо ()   н/о    4/0 средняя 
[Ac lent]
+13.3 +7.8 69 +13  1019.7  -0.3  711  272    +20.4       
21 23.04.17 тихо ()   н/о    6/3 600 м кучево-дожд., средняя 
[Cb cap|Ac lent]
+13.4 +7.6 68 +13  1019.2  -0.5  710  272           
00 24.04.17 020 (С) н/о    9/3 600 м кучево-дожд., средняя, верхняя 
[Cb cap|Ac cast|Ci fib]
+12.8 +2.3 49 +14  1019.9  0.4  711  273           
03 24.04.17 050 (СВ) 20000 м    ясно 
+13.3 +2.7 49 +14  1021.7  1.8  712  273           
06 24.04.17 тихо ()   20000 м    ясно 
+17.4 +2.1 36 +17  1021  0.3  712  269  +11.2         
09 24.04.17 020 (С) 20000 м    ясно 
+19.7 +2.1 31 +21  1020.3  -0.1  712  267           
12 24.04.17 050 (СВ) 20000 м    ясно 
+20.5 +0.4 26 +21  1019.7  -0.3  712  267           
15 24.04.17 тихо ()   н/о    ясно 
+16.7 +1.7 36 +17  1021.5  0.7  713  270    +21.4       
18 24.04.17 020 (С) н/о    ясно 
+13.3 +1.5 45 +13  1022.6  0.3  713  274    +21.4       
21 24.04.17 020 (С) н/о    ясно 
+12.8 +1.7 47 +13  1022.9  0.1  713  274           
00 25.04.17 090 (В) н/о    ясно 
+13.7 +0.4 40 +13  1022.3  -0.4  713  273           
03 25.04.17 110 (В) 20000 м    ясно 
+16.8 -1.4 29 +17  1022  0.5  713  271           
06 25.04.17 090 (В) 20000 м    ясно 
+19.1 +1.1 30 +19  1021  -0.4  713  268  +10.5         
09 25.04.17 090 (В) 20000 м    ясно 
+22.4 -0.2 22 +22  1018.7  -1.4  712  265           
12 25.04.17 090 (В) 20000 м    ясно 
+23.2 -4.1 16 +23  1017.3  -1.1  711  264           
15 25.04.17 090 (В) н/о    ясно 
+21.4 -3.6 18 +21  1017.6  -0.2  711  266    +23.8       
18 25.04.17 050 (СВ) н/о    ясно 
+18.5 -0.7 27 +19  1018.6  0.3  711  268    +23.8       
21 25.04.17 090 (В) н/о    ясно 
+14.9 -1.2 33 +14  1019.3  -0.2  711  272           
00 26.04.17 020 (С) н/о    ясно 
+9.4 +2.3 61 +8  1020.6  -0.1  710  276           
03 26.04.17 050 (СВ) 20000 м    ясно 
+12.6 +2.9 52 +12  1020.2  0.5  711  273           
06 26.04.17 050 (СВ) 20000 м    ясно 
+18.7 -0.5 27 +19  1017.3  -1.3  710  268  +8.8         
09 26.04.17 тихо ()   20000 м    ясно 
+23 +1.7 25 +23  1015.4  -0.8  709  263           
Время (UTC), дата Ветер
(°,м/с) 
Видим.   Явления Облачность Т
(°С)
Тd
(°С)
f(%) Тe
(°С)
Pmin
(гПа)
dP
(гПа)
Po
(мм)
O2
(г/м3)
Тmin Tmax R s Состояние
почвы

Для получения пояснительной информации подведите курсор к названию столбца.

ПОГОДА в Бектауате - архив

Всё, что Вы хотите узнать о погоде в Бектауате - удобно и подробно!

Выберите нужную дату (начиная с 1 января 2015* года) и нажмите кнопку "Найти".
Будут отображены архивные сводки погоды по пункту Бектауата, начиная с указанной даты.


Отображать данные в формате CSV (для использования в таблицах Excel)


Внимание! Наш архив погоды предназначен исключительно для личного некоммерческого использования в познавательных целях. Если Вам необходимы официальные справки о состоянии погоды (для производственных, юридических, коммерческих и т.п. целей), обращайтесь в органы Росгидромета.

*Примечание: данная дата относится к архиву по метеостанциям СССР (Россия, СНГ, Балтия).
Архив по метеостанциям Зарубежной Европы и Азии (кроме Китая) хранится 10 дней, по другим регионам земного шара (Китай, Африка, Америка, Австралия, Океания) - 1 день.

Бектауата - район местоположения метеостанции


Название, широта, долгота, высота метеостанции:
Бектауата 47.4°ш. 74.8°д. 520 м над ур. моря [Казахстан]

Дополнительная информация

В oтличие oт бoльшинства пoгoдных сайтoв мы публикуем пoдрoбную метеoинфoрмацию в детальнoм прoфессиoнальнoм фoрмате.

Характеристики температуры и влажнoсти вoздуха измеряются на высoте 2 м в тени вдали oт зданий и деревьев.
Скoрoсть ветра измеряется на высoте 10 м (на урoвне рoста челoвека скoрoсть ветра ниже в 1.5-2 раза). Если метеoстанция нахoдится в гoрoде или в лесу, тo скoрoсть ветра занижена на 2-4 м/с пo сравнению с oткрытым местoм. Скoрoсть ветра над акватoриями крупных рек и oзёр, а также на вершинах хoлмoв на 2-5 м/с выше, чем в oбычных услoвиях.
Атмoсфернoе давление в разных тoчках местнoсти мoжет значительнo oтличаться oт давления на метеoстанции, в зависимoсти oт услoвий рельефа (при пoдъёме на 10 м давление пoнижается примернo на 1 мм рт.ст.).